Regional Weather Roundup
Issued by NWS

Home | Current Version | Previous Version | Graphics & Text | Print | Product List | Glossary On
Versions: 1 2 3 4 5 6 7 8 9 10 11 12 13 14 15 16 17 18 19 20 21 22 23 24 25 26 27 28 29 30 31 32 33 34 35 36 37 38 39 40 41 42 43 44 45 46 47 48 49 50
028
ASUS43 KMPX 250910
RWRMN
WEATHER ROUNDUP FOR MINNESOTA
NATIONAL WEATHER SERVICE TWIN CITIES/CHANHASSEN MN
400 AM CDT FRI MAY 25 2018


NOTE: "FAIR" INDICATES FEW OR NO CLOUDS BELOW 12,000 FEET WITH NO
SIGNIFICANT WEATHER AND/OR OBSTRUCTIONS TO VISIBILITY. N/A MEANS
CURRENT SKY AND/OR WEATHER CONDITIONS ARE NOT AVAILABLE.

MNZ060>063-068>070-251000-
   Twin Cities Metro

CITY           SKY/WX    TMP DP  RH WIND       PRES   REMARKS
TWIN CITIES    TSTM      70  64  81 S6        29.87F
ST PAUL        TSTM      67  64  90 S8        29.89F FOG
CRYSTAL        LGT RAIN  67  63  87 SE9       29.81F
BLAINE         RAIN      70  63  78 S16G23    29.86R
LAKEVILLE      CLOUDY    66  63  88 W8        29.87F THUNDER
EDEN PRAIRIE   TSTM      67  62  84 S8        29.83F
SOUTH ST PAUL  TSTM      65  65  99 NE3       29.89F
LAKE ELMO      TSTM      66  64  94 SW13G21   29.90F
$$
MNZ001>005-007-008-013>017-022>024-027-028-251000-
   Northwest Minnesota

CITY           SKY/WX    TMP DP  RH WIND       PRES   REMARKS
BEMIDJI        FAIR      67  62  84 SW7       29.72S
HALLOCK        FAIR      61  54  77 CALM      29.65R
ROSEAU         FAIR      63  57  82 SW8       29.64S
WARROAD        FAIR      64  61  88 S7        29.63F
THIEF RVR FALL FAIR      61  57  87 SW6       29.69S
CROOKSTON      FAIR      61  55  82 SW7       29.69S
FOSSTON        FAIR      61  55  82 S7        29.72S
DETROIT LAKES  FAIR      68  61  77 SW5       29.75F
MOORHEAD       FAIR      64  55  72 S5        29.73S
PARK RAPIDS    FAIR      65  61  87 S3        29.74S
MAHNOMEN       FAIR      63  58  86 S9        29.72S
$$
MNZ006-009>011-018-025>026-251000-
   North Central Minnesota

CITY           SKY/WX    TMP DP  RH WIND       PRES   REMARKS
BAUDETTE       FAIR      65  62  90 SW7       29.64F
FLAG ISLAND    FAIR      61  57  88 S8        29.60F
INTL FALLS     FAIR      63  63 100 SE6       29.67F
WASKISH          N/A     66  63  88 CALM      29.68S
BIG FORK       FAIR      64  61  88 S5        29.71F
LONGVILLE      FAIR      66  59  77 S6        29.75S
GRAND RAPIDS   FAIR      65  59  81 S8        29.77S
CRANE LAKE     FOG       61  59  94 CALM      29.73F VSB 1/2
ORR            FAIR      63  61  94 SE3       29.70F
COOK           FAIR      68  61  77 S6        29.73F
WALKER         FAIR      65  59  81 SW8       29.73S
$$
MNZ012-019>021-037-251000-
   Northeast Minnesota

CITY           SKY/WX    TMP DP  RH WIND       PRES   REMARKS
DULUTH         FAIR      67  59  75 SW13      29.79S
ELY            FAIR      68  57  68 S8        29.75F
HIBBING        MOCLDY    65  58  78 S3        29.75F
EVELETH        FAIR      64  61  88 S5        29.77F
DULUTH HARBOR  FAIR      52  52 100 CALM      29.78S
TWO HARBORS    FAIR      57  54  88 CALM      29.76F
SILVER BAY     FAIR      57  57 100 CALM      29.76F
GRAND MARAIS     N/A     45  44  97 NE7       29.77S
G MARAIS ARPRT FAIR      61  57  88 SW3       29.80F
$$
MNZ029>031-032-039>041-046>048-054>057-064-251000-
   West Central Minnesota

CITY           SKY/WX    TMP DP  RH WIND       PRES   REMARKS
FERGUS FALLS   FAIR      66  63  88 SW3       29.71S
WHEATON        PTCLDY    68  61  77 SW6       29.76F
MORRIS         PTCLDY    66  61  82 S6        29.77R
ALEXANDRIA     FAIR      70  62  76 S8        29.79S
ELBOW LAKE     FAIR      63  60  92 W5        29.76F
WADENA         FAIR      63  61  94 S5        29.75S
GLENWOOD       FAIR      64  61  88 S7          N/A
APPLETON       CLOUDY    70  57  64 CALM      29.78R
BENSON         PTCLDY    66  61  82 S8        29.79F
ORTONVILLE     CLOUDY    66  61  82 S3        29.78R
MADISON        CLOUDY    66  59  77 S3        29.79R
WILLMAR        FAIR      68  61  77 SE9       29.82S
$$
MNZ033>034-036-042>043-049>051-058-059-251000-
   Central Minnesota

CITY           SKY/WX    TMP DP  RH WIND       PRES   REMARKS
ST CLOUD       FAIR      71  61  70 S12       29.80S
SAUK CENTRE    FAIR      66  61  83 S6        29.79S
PAYNESVILLE    MOCLDY    70  60  70 S9        29.81R
PINE RIVER     FAIR      64  57  77 S5        29.80S
BRAINERD       FAIR      69  60  73 S10       29.78R
STAPLES        FAIR      64  59  82 S8        29.77S
LONG PRAIRIE   FAIR      64  61  88 S7        29.79S
LITTLE FALLS   CLOUDY    64  63  94 S6        29.79S
LITCHFIELD     FAIR      70  63  78 S6        29.81F
BUFFALO        MOCLDY    67  61  81 SE6       29.82F
MAPLE LAKE     MOCLDY    68  63  83 S3        29.82F
HUTCHINSON     FAIR      67  62  84 SE5       29.82F
$$
MNZ037-044-045-052-053-251000-
   East Central Minnesota

CITY           SKY/WX    TMP DP  RH WIND       PRES   REMARKS
PRINCETON      FAIR      72  63  73 S10G20    29.81S
MORA           FAIR      64  59  82 S8        29.83S
CAMBRIDGE      LGT RAIN  72  59  64 S10       29.81F
RUSH CITY      FAIR      68  61  79 S9        29.82R
MOOSE LAKE     FAIR      68  61  77 SW7       29.78S
HINCKLEY       FAIR      68  63  83 S7        29.81S
CLOQUET        FAIR      66  57  72 SW7       29.79S
MCGREGOR       FAIR      68  61  77 S6        29.78S
$$
MNZ071>073-080-081-089-090-097-098-251000-
   Southwest Minnesota

CITY           SKY/WX    TMP DP  RH WIND       PRES   REMARKS
MONTEVIDEO     MOCLDY    66  61  82 S6        29.79S
CANBY          PTCLDY    70  59  68 SW7       29.80S
MARSHALL       CLOUDY    66  60  81 NW6       29.81S
REDWOOD FALLS  CLOUDY    67  64  90 SE8       29.81S
OLIVIA         PTCLDY    68  63  83 SE7       29.81S
PIPESTONE      PTCLDY    66  61  82 SW8       29.83S
WINDOM         PTCLDY    72  54  53 S10       29.83S
WORTHINGTON    CLOUDY    70  64  81 S16       29.85S
JACKSON        CLOUDY    70  63  78 S10       29.85F
TRACY          CLOUDY    72  64  77 SW8       29.82R
SLAYTON        HVY RAIN  71  64  78 SW17      29.84S
$$
MNZ065>067-074>077-082>085-091>093-251000-
   South Central Minnesota

CITY           SKY/WX    TMP DP  RH WIND       PRES   REMARKS
MANKATO        CLOUDY    73  63  70 CALM      29.84S
NEW ULM        PTCLDY    70  63  78 CALM      29.82S
ST JAMES       CLOUDY    72  64  78 S13       29.83S
FAIRMONT       PTCLDY    71  64  78 S14       29.84F
GLENCOE        FAIR      66  66 100 SE5       29.83F
FARIBAULT      MOCLDY    70  63  78 CALM      29.87R
OWATONNA       FAIR      70  63  78 S13       29.85F
WASECA         FAIR      72  63  73 S13       29.86F
ALBERT LEA     FAIR      70  59  68 S6        29.87F
$$
MNZ078>079-086>088-094>096-251000-
   Southeast Minnesota

CITY           SKY/WX    TMP DP  RH WIND       PRES   REMARKS
ROCHESTER      FAIR      69  60  73 SW8       29.89F
RED WING       CLOUDY    68  63  83 SE6       29.84F
STANTON        CLOUDY    72  61  68 W10G22    29.86R
DODGE CENTER   FAIR      66  61  82 S10       29.88F
WINONA         FAIR      70  64  83 CALM      29.88S
AUSTIN         FAIR      68  61  77 S5        29.88F
PRESTON        FAIR      66  60  80 S8        29.91F
$$
ABBREVIATIONS USED IN REMARKS
   TC - TEMPERATURES IN CELSIUS
  WCI - WIND CHILL INDEX
   HX - HEAT INDEX
  VSB - VISIBILITY
$$




USA.gov is the U.S. government's official web portal to all federal, state and local government web resources and services.